Orbital Elements at Epoch 2459200.5 (2020-Dec-17.0) TDB
Reference: JPL 23 (heliocentric ecliptic J2000)
Element | Value | Uncertainty (1-sigma) | Units |
e | .1169992397863983 | 4.2139e-08 | |
a | 2.519921418126541 | 9.4882e-09 | au |
q | 2.225092527884273 | 1.0584e-07 | au |
i | 2.379254050639137 | 5.3564e-06 | deg |
node | 159.5367116624009 | 7.4412e-05 | deg |
peri | 240.0523285949614 | 7.7862e-05 | deg |
M | 171.4722542131933 | 2.1387e-05 | deg |
tp | 2458504.562433695211 (2019-Jan-21.06243370) | 8.6009e-05 | TDB |
period | 1461.096578098449 4.00 | 8.2521e-06 2.259e-08 | d yr |
n | .2463902834325461 | 1.3916e-09 | deg/d |
Q | 2.814750308368809 | 1.0598e-08 | au |
|
| | Orbit Determination Parameters
Additional Information
|